LRSV Weather Reports


time (UTC)temp
C
wind
direction
speed
KPH
gust
KPH
rain 1hr
cm
rain 24hr
cm
rain mn
cm
humidity
%
barometer
mb
20260506134845 25 140 32.2 0.0 0.00 0.00 0.00 26 1011.0
20260506133320 25 140 32.2 0.0 0.00 0.00 0.00 26 1011.0
20260506131820 26 140 29.0 0.0 0.00 0.00 0.00 26 1011.0
20260506130329 26 140 29.0 0.0 0.00 0.00 0.00 26 1011.0
20260506124821 26 140 32.2 0.0 0.00 0.00 0.00 24 1012.0
20260506123320 26 140 32.2 0.0 0.00 0.00 0.00 24 1012.0
20260506121820 26 150 29.0 0.0 0.00 0.00 0.00 23 1012.0
20260506120320 26 150 29.0 0.0 0.00 0.00 0.00 23 1012.0
20260506114820 26 150 24.1 0.0 0.00 0.00 0.00 26 1012.0
20260506113320 26 150 24.1 0.0 0.00 0.00 0.00 26 1012.0
20260506111820 26 160 22.5 0.0 0.00 0.00 0.00 23 1013.0
20260506110320 26 160 22.5 0.0 0.00 0.00 0.00 23 1013.0
20260506104820 26 150 24.1 0.0 0.00 0.00 0.00 24 1013.0
20260506103320 26 150 24.1 0.0 0.00 0.00 0.00 24 1013.0
20260506101820 25 150 27.4 0.0 0.00 0.00 0.00 26 1013.0
20260506100320 25 150 27.4 0.0 0.00 0.00 0.00 26 1013.0
20260506094820 25 170 24.1 0.0 0.00 0.00 0.00 24 1013.0
20260506093320 25 170 24.1 0.0 0.00 0.00 0.00 24 1013.0
20260506091820 23 150 17.7 0.0 0.00 0.00 0.00 34 1013.0
20260506090320 23 150 17.7 0.0 0.00 0.00 0.00 34 1013.0
20260506084820 22 170 11.3 0.0 0.00 0.00 0.00 38 1013.0
20260506083320 22 170 11.3 0.0 0.00 0.00 0.00 38 1013.0
20260506081817 22 200 9.7 0.0 0.00 0.00 0.00 38 1013.0
20260506080320 22 200 9.7 0.0 0.00 0.00 0.00 38 1013.0
20260506073320 21 210 9.7 0.0 0.00 0.00 0.00 40 1013.0
20260506071820 18 210 9.7 0.0 0.00 0.00 0.00 43 1013.0
20260506070320 18 210 9.7 0.0 0.00 0.00 0.00 43 1013.0
20260506061820 17 220 4.8 0.0 0.00 0.00 0.00 52 1013.0
20260506060321 17 220 4.8 0.0 0.00 0.00 0.00 52 1013.0
20260506050334 15 240 14.5 0.0 0.00 0.00 0.00 51 1013.0
20260506044835 12 240 16.1 0.0 0.00 0.00 0.00 55 1013.0
20260506043324 12 240 16.1 0.0 0.00 0.00 0.00 55 1013.0
20260506041821 12 230 17.7 0.0 0.00 0.00 0.00 58 1012.0
20260506040320 12 230 17.7 0.0 0.00 0.00 0.00 58 1012.0
20260506034820 11 230 20.9 0.0 0.00 0.00 0.00 62 1012.0
20260506033320 11 230 20.9 0.0 0.00 0.00 0.00 62 1012.0
20260506031820 12 240 16.1 0.0 0.00 0.00 0.00 51 1012.0
20260506030319 12 240 16.1 0.0 0.00 0.00 0.00 51 1012.0
20260506024820 11 230 16.1 0.0 0.00 0.00 0.00 62 1012.0
20260506023320 11 230 16.1 0.0 0.00 0.00 0.00 62 1012.0
20260506021820 12 210 14.5 0.0 0.00 0.00 0.00 58 1012.0
20260506020320 12 210 14.5 0.0 0.00 0.00 0.00 58 1012.0
20260506014820 12 210 16.1 0.0 0.00 0.00 0.00 63 1012.0
20260506013320 12 210 16.1 0.0 0.00 0.00 0.00 63 1012.0
20260506011820 12 220 17.7 0.0 0.00 0.00 0.00 63 1012.0
20260506010320 12 220 17.7 0.0 0.00 0.00 0.00 63 1012.0
20260506004820 12 210 16.1 0.0 0.00 0.00 0.00 59 1012.0
20260506003437 12 210 16.1 0.0 0.00 0.00 0.00 59 1012.0
20260506001820 12 210 16.1 0.0 0.00 0.00 0.00 63 1012.0
20260506000322 12 210 16.1 0.0 0.00 0.00 0.00 63 1012.0
20260505234820 13 190 12.9 0.0 0.00 0.00 0.00 55 1012.0
20260505233320 13 190 12.9 0.0 0.00 0.00 0.00 55 1012.0
20260505231820 13 190 14.5 0.0 0.00 0.00 0.00 59 1012.0
20260505230320 13 190 14.5 0.0 0.00 0.00 0.00 59 1012.0
20260505224820 12 180 16.1 0.0 0.00 0.00 0.00 63 1012.0
20260505223320 12 180 16.1 0.0 0.00 0.00 0.00 63 1012.0
20260505221817 13 180 16.1 0.0 0.00 0.00 0.00 59 1012.0
20260505220320 13 180 16.1 0.0 0.00 0.00 0.00 59 1012.0
20260505214821 13 180 16.1 0.0 0.00 0.00 0.00 55 1012.0
20260505213320 13 180 16.1 0.0 0.00 0.00 0.00 55 1012.0
20260505211820 15 170 17.7 0.0 0.00 0.00 0.00 48 1012.0
20260505210320 15 170 17.7 0.0 0.00 0.00 0.00 48 1012.0
20260505204822 15 180 17.7 0.0 0.00 0.00 0.00 48 1012.0
20260505203319 15 180 17.7 0.0 0.00 0.00 0.00 48 1012.0
20260505201851 15 170 14.5 0.0 0.00 0.00 0.00 45 1012.0
20260505200320 15 170 14.5 0.0 0.00 0.00 0.00 45 1012.0
20260505194820 17 160 14.5 0.0 0.00 0.00 0.00 39 1012.0
20260505193320 17 160 14.5 0.0 0.00 0.00 0.00 39 1012.0
20260505191820 17 170 12.9 0.0 0.00 0.00 0.00 39 1012.0
20260505190319 17 170 12.9 0.0 0.00 0.00 0.00 39 1012.0
20260505184821 17 150 16.1 0.0 0.00 0.00 0.00 39 1012.0
20260505183320 17 150 16.1 0.0 0.00 0.00 0.00 39 1012.0
20260505181821 17 150 14.5 0.0 0.00 0.00 0.00 40 1012.0
20260505180320 17 150 14.5 0.0 0.00 0.00 0.00 40 1012.0
20260505174817 18 150 14.5 0.0 0.00 0.00 0.00 40 1012.0
20260505173320 18 150 14.5 0.0 0.00 0.00 0.00 40 1012.0
20260505171820 20 150 16.1 0.0 0.00 0.00 0.00 38 1012.0
20260505170320 20 150 16.1 0.0 0.00 0.00 0.00 38 1012.0
20260505164820 22 140 12.9 0.0 0.00 0.00 0.00 36 1011.0
20260505163320 22 140 12.9 0.0 0.00 0.00 0.00 36 1011.0
20260505161821 23 140 12.9 0.0 0.00 0.00 0.00 25 1011.0
20260505160320 23 140 12.9 0.0 0.00 0.00 0.00 25 1011.0
20260505153320 25 120 14.5 0.0 0.00 0.00 0.00 26 1012.0
20260505151828 25 130 16.1 0.0 0.00 0.00 0.00 22 1012.0
20260505150321 25 130 16.1 0.0 0.00 0.00 0.00 22 1012.0
20260505140320 25 140 12.9 0.0 0.00 0.00 0.00 15 1012.0